Location: ?????????
(38.5999°N, 22.7695°E)
Time: 11:24:04
(UTC+00:00)

Cosmos 2237 - Pass Details

Date: 23 May 2024
Orbit: 844 x 857 km, 70.8° (Epoch: 23 June)

Event Time Altitude Azimuth Distance (km) Brightness Sun altitude
Rises 00:14:47 0° 339° (NNW) 3,436 7.9 -25.5°
Reaches altitude 10° 00:17:16 10° 341° (NNW) 2,496 7.2 -25.2°
Maximum altitude 00:23:00 72° 66° (ENE) 902 4.4 -24.7°
Enters shadow 00:25:54 30° 144° (SE) 1,482 5.2 -24.4°
